TimeEDT,TemperatureF,Dew PointF,Humidity,Sea Level PressureIn,VisibilityMPH,Wind Direction,Wind SpeedMPH,Gust SpeedMPH,PrecipitationIn,Events,Conditions,WindDirDegrees,DateUTC
12:56 AM,57.9,57.9,100,30.23,6.0,Calm,Calm,-,N/A,,Clear,0,2013-07-31 04:56:00
1:17 AM,57.2,57.2,100,30.19,2.5,Calm,Calm,-,N/A,,Clear,0,2013-07-31 05:17:00
1:31 AM,57.2,57.2,100,30.19,1.5,Calm,Calm,-,N/A,,Clear,0,2013-07-31 05:31:00
1:38 AM,57.2,57.2,100,30.19,3.0,Calm,Calm,-,N/A,,Clear,0,2013-07-31 05:38:00
1:56 AM,57.9,57.9,100,30.22,3.0,Calm,Calm,-,N/A,,Clear,0,2013-07-31 05:56:00
2:03 AM,57.2,57.2,100,30.19,2.5,Calm,Calm,-,N/A,,Clear,0,2013-07-31 06:03:00
2:56 AM,56.8,56.8,100,30.21,2.5,Calm,Calm,-,N/A,,Clear,0,2013-07-31 06:56:00
3:04 AM,55.4,55.4,100,30.18,1.2,Calm,Calm,-,N/A,,Clear,0,2013-07-31 07:04:00
3:07 AM,55.4,55.4,100,30.18,0.8,Calm,Calm,-,N/A,,Clear,0,2013-07-31 07:07:00
3:18 AM,55.4,55.4,100,30.18,1.2,Calm,Calm,-,N/A,,Clear,0,2013-07-31 07:18:00
3:24 AM,55.4,55.4,100,30.18,0.8,Calm,Calm,-,N/A,,Clear,0,2013-07-31 07:24:00
3:29 AM,55.4,55.4,100,30.18,1.2,Calm,Calm,-,N/A,,Clear,0,2013-07-31 07:29:00
3:33 AM,55.4,55.4,100,30.18,2.0,Calm,Calm,-,N/A,,Clear,0,2013-07-31 07:33:00
3:56 AM,55.9,55.9,100,30.21,1.8,Calm,Calm,-,N/A,,Clear,0,2013-07-31 07:56:00
4:00 AM,55.4,55.4,100,30.17,1.0,Calm,Calm,-,N/A,,Clear,0,2013-07-31 08:00:00
4:02 AM,55.4,55.4,100,30.17,0.5,Calm,Calm,-,N/A,Fog,Fog,0,2013-07-31 08:02:00
4:11 AM,55.4,55.4,100,30.17,0.2,Calm,Calm,-,N/A,Fog,Fog,0,2013-07-31 08:11:00
4:18 AM,55.4,55.4,100,30.17,0.5,Calm,Calm,-,N/A,Fog,Fog,0,2013-07-31 08:18:00
4:21 AM,55.4,55.4,100,30.17,1.0,Calm,Calm,-,N/A,,Clear,0,2013-07-31 08:21:00
4:23 AM,55.4,55.4,100,30.17,3.0,Calm,Calm,-,N/A,,Clear,0,2013-07-31 08:23:00
4:36 AM,55.4,55.4,100,30.17,2.5,Calm,Calm,-,N/A,,Clear,0,2013-07-31 08:36:00
4:43 AM,55.4,55.4,100,30.17,1.2,Calm,Calm,-,N/A,,Clear,0,2013-07-31 08:43:00
4:56 AM,55.9,55.9,100,30.20,2.0,Calm,Calm,-,N/A,,Clear,0,2013-07-31 08:56:00
5:07 AM,55.4,55.4,100,30.17,1.8,Calm,Calm,-,N/A,,Clear,0,2013-07-31 09:07:00
5:11 AM,55.4,55.4,100,30.17,3.0,Calm,Calm,-,N/A,,Clear,0,2013-07-31 09:11:00
5:22 AM,53.6,53.6,100,30.17,1.5,Calm,Calm,-,N/A,,Clear,0,2013-07-31 09:22:00
5:24 AM,53.6,53.6,100,30.17,1.0,Calm,Calm,-,N/A,,Clear,0,2013-07-31 09:24:00
5:35 AM,53.6,53.6,100,30.17,0.8,Calm,Calm,-,N/A,,Clear,0,2013-07-31 09:35:00
5:49 AM,53.6,53.6,100,30.17,1.2,Calm,Calm,-,N/A,,Clear,0,2013-07-31 09:49:00
5:56 AM,54.0,54.0,100,30.20,2.0,Calm,Calm,-,N/A,,Clear,0,2013-07-31 09:56:00
6:06 AM,55.4,55.4,100,30.17,7.0,Calm,Calm,-,N/A,,Clear,0,2013-07-31 10:06:00
6:32 AM,55.4,55.4,100,30.17,1.5,Calm,Calm,-,N/A,,Clear,0,2013-07-31 10:32:00
6:40 AM,55.4,55.4,100,30.17,1.0,Calm,Calm,-,N/A,,Clear,0,2013-07-31 10:40:00
6:56 AM,54.9,54.9,100,30.21,2.5,Calm,Calm,-,N/A,,Clear,0,2013-07-31 10:56:00
7:04 AM,55.4,55.4,100,30.17,5.0,Calm,Calm,-,N/A,,Clear,0,2013-07-31 11:04:00
7:56 AM,57.9,56.8,96,30.20,8.0,Calm,Calm,-,N/A,,Clear,0,2013-07-31 11:56:00
8:56 AM,61.9,59.9,93,30.20,10.0,Calm,Calm,-,N/A,,Clear,0,2013-07-31 12:56:00
9:56 AM,68.0,59.9,75,30.19,10.0,Calm,Calm,-,N/A,,Partly Cloudy,0,2013-07-31 13:56:00
10:56 AM,72.0,63.9,76,30.18,10.0,Calm,Calm,-,N/A,,Partly Cloudy,0,2013-07-31 14:56:00
11:56 AM,72.9,61.9,68,30.17,10.0,Calm,Calm,-,N/A,,Scattered Clouds,0,2013-07-31 15:56:00
12:35 PM,73.4,62.6,69,30.12,10.0,Calm,Calm,-,N/A,,Scattered Clouds,0,2013-07-31 16:35:00
12:56 PM,73.9,61.9,66,30.14,10.0,Calm,Calm,-,N/A,,Mostly Cloudy,0,2013-07-31 16:56:00
1:56 PM,73.9,61.9,66,30.13,10.0,Calm,Calm,-,N/A,,Partly Cloudy,0,2013-07-31 17:56:00
2:56 PM,70.9,65.8,84,30.12,7.0,Calm,Calm,-,0.00,Rain,Light Rain,0,2013-07-31 18:56:00
3:30 PM,66.2,66.2,100,30.09,2.5,WSW,6.9,-,0.04,Rain,Rain,240,2013-07-31 19:30:00
3:56 PM,66.9,64.9,93,30.12,4.0,Calm,Calm,-,0.07,Rain,Light Rain,0,2013-07-31 19:56:00
4:56 PM,69.8,64.4,83,30.07,10.0,NE,4.6,-,N/A,,Mostly Cloudy,40,2013-07-31 20:56:00
5:56 PM,70.9,65.8,84,30.09,10.0,Calm,Calm,-,N/A,,Clear,0,2013-07-31 21:56:00
6:56 PM,68.0,64.9,90,30.07,10.0,Calm,Calm,-,0.00,,Mostly Cloudy,0,2013-07-31 22:56:00
7:56 PM,68.0,64.9,90,30.06,10.0,Calm,Calm,-,N/A,,Clear,0,2013-07-31 23:56:00
8:56 PM,65.8,63.9,93,30.04,10.0,ESE,4.6,-,N/A,,Clear,110,2013-08-01 00:56:00
9:56 PM,65.8,63.9,93,30.03,9.0,Calm,Calm,-,0.00,,Clear,0,2013-08-01 01:56:00
10:56 PM,63.9,63.0,97,30.03,3.0,Calm,Calm,-,N/A,,Clear,0,2013-08-01 02:56:00
11:56 PM,64.9,63.9,96,30.00,6.0,Variable,3.5,-,N/A,,Clear,0,2013-08-01 03:56:00